Location: ?????????
(44.2517°N, 135.2292°E)
Time: 06:05:50
(UTC+00:00)

Meteor 2-2 Rocket - Pass Details

Date: 19 May 2025
Orbit: 852 x 927 km, 81.3° (Epoch: 15 June)

Event Time Altitude Azimuth Distance (km) Brightness Sun altitude
Exits shadow 12:23:43 10° 195° (SSW) 2,574 6.4 -17.1°
Reaches altitude 10° 12:23:44 10° 195° (SSW) 2,570 6.4 -17.1°
Maximum altitude 12:29:36 76° 281° (W) 942 4.5 -17.7°
Drops below altitude 10° 12:35:38 10° 8° (N) 2,629 7.4 -18.3°
Sets 12:38:08 0° 10° (N) 3,581 8.2 -18.6°
